Hourly Data Report for September 28, 2017

All times are specified in Local Standard Time (LST). Add 1 hour to adjust for Daylight Saving Time where and when it is observed.

KOUCHIBOUGUAC CS
NEW BRUNSWICK

46°47'00.000" N
65°01'00.000" W
21.00 m
8102328
71670
AKC

Download Data

Hourly Data (September 2017)
Hourly Data Report for September 28, 2017
Temp Definition
°C
Dew Point Temp Definition
°C
Rel Hum Definition
%
Wind Dir Definition
10's deg

Wind Spd Definition
km/h
Visibility Definition
km
Stn Press Definition
kPa
Hmdx Definition


Wind Chill Definition


Weather Definition


TIME
00:00 18.0 16.6 92 24 3   100.25     LegendNANA
01:00 17.0 16.3 96 16 4   100.10     LegendNANA
02:00 17.3 16.9 98 18 5   100.15     LegendNANA
03:00 18.0 17.5 97 22 4   100.09     LegendNANA
04:00 17.9 17.2 96 24 5   100.10     LegendNANA
05:00 16.2 14.4 89 26 9   100.05     LegendNANA
06:00 15.7 14.3 91 23 8   99.95     LegendNANA
07:00 15.6 14.6 94 22 8   99.87     LegendNANA
08:00 16.2 15.3 94 30 5   99.90     LegendNANA
09:00 15.2 12.2 82 32 6   100.03     LegendNANA
10:00 15.6 11.9 79 30 8   100.04     LegendNANA
11:00 15.7 12.2 80 21 5   100.05     LegendNANA
12:00 16.5 12.0 75 26 7   100.07     LegendNANA
13:00 17.6 11.5 67 27 10   100.03     LegendNANA
14:00 17.3 10.7 65 28 8   100.03     LegendNANA
15:00 18.1 9.8 58 29 12   100.03     LegendNANA
16:00 17.7 8.4 55 28 12   100.10     LegendNANA
17:00 15.3 8.2 63 29 10   100.17     LegendNANA
18:00 13.9 7.7 66 31 7   100.22     LegendNANA
19:00 13.0 5.9 62 30 11   100.26     LegendNANA
20:00 11.2 6.0 70 25 4   100.29     LegendNANA
21:00 10.7 5.8 72 30 10   100.33     LegendNANA
22:00 9.8 5.4 74 29 8   100.32     LegendNANA
23:00 8.0 5.2 83 26 5   100.36     LegendNANA

Notes on Data Quality.

Legend

  • E = Estimated
  • M = Missing
  • NA = Not Available
  • ‡ = Partner data that is not subject to review by the National Climate Archives
Date modified: